Time,TemperatureF,DewpointF,PressureIn,WindDirection,WindDirectionDegrees,WindSpeedMPH,WindSpeedGustMPH,Humidity,HourlyPrecipIn,Conditions,Clouds,dailyrainin,SoftwareType,DateUTC
2013-08-21 00:03:00,64.5,59.0,30.03,SSW,203,0.0,0.0,82,0.00,,,0.00,WSDL version 420,2013-08-21 04:03:00,
2013-08-21 00:08:00,64.3,59.1,30.03,SSW,203,0.0,0.0,83,0.00,,,0.00,WSDL version 420,2013-08-21 04:08:00,
2013-08-21 00:13:00,64.1,58.9,30.03,SSW,203,0.0,1.3,83,0.00,,,0.00,WSDL version 420,2013-08-21 04:13:00,
2013-08-21 00:18:00,63.9,58.8,30.03,SW,220,1.0,2.5,83,0.00,,,0.00,WSDL version 420,2013-08-21 04:18:00,
2013-08-21 00:23:00,63.9,59.1,30.03,SSW,203,0.7,2.5,84,0.00,,,0.00,WSDL version 420,2013-08-21 04:23:00,
2013-08-21 00:28:00,63.9,59.1,30.03,SSW,203,0.0,2.2,84,0.00,,,0.00,WSDL version 420,2013-08-21 04:28:00,
2013-08-21 00:33:00,63.6,59.0,30.03,East,96,0.0,0.0,86,0.00,,,0.00,WSDL version 420,2013-08-21 04:33:00,
2013-08-21 00:38:00,63.5,58.8,30.03,SW,225,0.0,2.0,84,0.00,,,0.00,WSDL version 420,2013-08-21 04:38:00,
2013-08-21 00:43:00,63.3,59.1,30.03,SW,225,1.1,2.0,87,0.00,,,0.00,WSDL version 420,2013-08-21 04:43:00,
2013-08-21 00:48:00,63.5,59.5,30.03,SW,225,0.0,1.6,87,0.00,,,0.00,WSDL version 420,2013-08-21 04:48:00,
2013-08-21 00:53:00,63.3,59.2,30.03,SW,225,0.0,1.1,87,0.00,,,0.00,WSDL version 420,2013-08-21 04:53:00,
2013-08-21 00:58:00,63.1,59.1,30.03,SW,225,0.0,0.0,87,0.00,,,0.00,WSDL version 420,2013-08-21 04:58:00,
2013-08-21 01:03:00,63.0,58.9,30.03,SW,225,0.0,0.0,87,0.00,,,0.00,WSDL version 420,2013-08-21 05:03:00,
2013-08-21 01:08:00,62.8,59.1,30.03,SW,225,0.0,0.0,88,0.00,,,0.00,WSDL version 420,2013-08-21 05:08:00,
2013-08-21 01:13:00,62.8,59.3,30.03,SW,225,0.0,0.0,89,0.00,,,0.00,WSDL version 420,2013-08-21 05:13:00,
2013-08-21 01:18:00,62.8,59.5,30.03,SW,225,0.0,0.9,89,0.00,,,0.00,WSDL version 420,2013-08-21 05:18:00,
2013-08-21 01:23:00,62.8,59.5,30.03,SW,225,0.0,0.9,89,0.00,,,0.00,WSDL version 420,2013-08-21 05:23:00,
2013-08-21 01:28:00,62.8,59.5,30.03,SW,225,0.0,0.9,89,0.00,,,0.00,WSDL version 420,2013-08-21 05:28:00,
2013-08-21 01:33:00,62.7,59.5,30.06,SSW,203,0.1,1.1,90,0.00,,,0.00,WSDL version 420,2013-08-21 05:33:00,
2013-08-21 01:38:00,62.6,59.3,30.06,SSW,203,0.3,1.6,89,0.00,,,0.00,WSDL version 420,2013-08-21 05:38:00,
2013-08-21 01:43:00,62.6,59.5,30.06,SSW,203,0.0,1.6,90,-99.99,,,-99.99,WSDL version 420,2013-08-21 05:43:00,
2013-08-21 01:48:00,62.4,59.5,30.03,SSW,203,0.9,2.2,90,0.00,,,0.00,WSDL version 420,2013-08-21 05:48:00,
2013-08-21 01:53:00,62.4,59.7,30.03,SSW,203,0.0,2.2,91,0.00,,,0.00,WSDL version 420,2013-08-21 05:53:00,
2013-08-21 01:58:00,62.4,59.8,30.03,SSW,203,0.6,2.0,91,0.00,,,0.00,WSDL version 420,2013-08-21 05:58:00,
2013-08-21 02:03:00,62.4,59.8,30.03,South,188,0.0,2.0,91,0.00,,,0.00,WSDL version 420,2013-08-21 06:03:00,
2013-08-21 02:08:00,62.4,59.8,30.03,SSW,203,0.4,1.3,91,0.00,,,0.00,WSDL version 420,2013-08-21 06:08:00,
2013-08-21 02:13:00,62.3,59.7,30.03,SSW,203,0.8,2.2,91,0.00,,,0.00,WSDL version 420,2013-08-21 06:13:00,
2013-08-21 02:18:00,62.2,59.6,30.06,SSW,203,0.0,2.2,91,0.00,,,0.00,WSDL version 420,2013-08-21 06:18:00,
2013-08-21 02:23:00,62.1,59.5,30.06,SSW,203,0.0,0.0,91,0.00,,,0.00,WSDL version 420,2013-08-21 06:23:00,
2013-08-21 02:28:00,62.0,59.4,30.06,SSW,203,0.0,0.0,91,0.00,,,0.00,WSDL version 420,2013-08-21 06:28:00,
2013-08-21 02:33:00,61.9,59.5,30.06,SSW,203,0.3,1.6,92,-99.99,,,-99.99,WSDL version 420,2013-08-21 06:33:00,
2013-08-21 02:38:00,61.9,59.6,30.06,SSW,203,0.6,1.6,92,0.00,,,0.00,WSDL version 420,2013-08-21 06:38:00,
2013-08-21 02:43:00,61.8,59.6,30.06,WSW,248,0.0,1.6,92,0.00,,,0.00,WSDL version 420,2013-08-21 06:43:00,
2013-08-21 02:48:00,61.7,59.4,30.06,WSW,248,0.0,1.3,92,0.00,,,0.00,WSDL version 420,2013-08-21 06:48:00,
2013-08-21 02:53:00,61.5,59.5,30.06,WSW,248,0.0,0.0,93,0.00,,,0.00,WSDL version 420,2013-08-21 06:53:00,
2013-08-21 02:58:00,61.5,59.6,30.06,WSW,248,0.0,0.0,93,0.00,,,0.00,WSDL version 420,2013-08-21 06:58:00,
2013-08-21 03:03:00,61.3,59.4,30.06,SW,221,0.4,1.6,93,0.00,,,0.00,WSDL version 420,2013-08-21 07:03:00,
2013-08-21 03:08:00,61.3,59.7,30.06,SSW,203,0.9,1.6,94,0.00,,,0.00,WSDL version 420,2013-08-21 07:08:00,
2013-08-21 03:13:00,61.5,59.9,30.06,SSE,158,0.4,1.3,94,0.00,,,0.00,WSDL version 420,2013-08-21 07:13:00,
2013-08-21 03:18:00,61.3,59.7,30.06,ENE,68,1.0,2.7,94,0.00,,,0.00,WSDL version 420,2013-08-21 07:18:00,
2013-08-21 03:23:00,61.3,59.7,30.06,SE,135,0.0,2.7,94,0.00,,,0.00,WSDL version 420,2013-08-21 07:23:00,
2013-08-21 03:28:00,61.3,59.7,30.06,SSE,158,0.0,0.9,94,0.00,,,0.00,WSDL version 420,2013-08-21 07:28:00,
2013-08-21 03:33:00,61.4,59.8,30.09,SSE,165,0.0,1.3,94,0.00,,,0.00,WSDL version 420,2013-08-21 07:33:00,
2013-08-21 03:38:00,61.5,60.0,30.09,SSW,203,0.1,1.3,96,0.00,,,0.00,WSDL version 420,2013-08-21 07:38:00,
2013-08-21 03:43:00,61.5,60.1,30.09,SSW,203,0.7,2.0,94,0.00,,,0.00,WSDL version 420,2013-08-21 07:43:00,
2013-08-21 03:48:00,61.5,59.9,30.06,SSW,203,0.0,2.0,94,0.00,,,0.00,WSDL version 420,2013-08-21 07:48:00,
2013-08-21 03:53:00,61.5,60.2,30.06,SSW,203,0.0,0.9,96,0.00,,,0.00,WSDL version 420,2013-08-21 07:53:00,
2013-08-21 03:59:00,61.5,60.1,30.06,SSW,203,0.7,2.7,96,0.00,,,0.00,WSDL version 420,2013-08-21 07:59:00,
2013-08-21 04:04:00,61.4,60.1,30.06,SSW,203,1.0,2.7,96,0.00,,,0.00,WSDL version 420,2013-08-21 08:04:00,
2013-08-21 04:09:00,61.3,60.1,30.06,SSW,203,0.0,2.0,96,0.00,,,0.00,WSDL version 420,2013-08-21 08:09:00,
2013-08-21 04:14:00,61.3,60.1,30.06,WSW,248,0.0,2.0,96,0.00,,,0.00,WSDL version 420,2013-08-21 08:14:00,
2013-08-21 04:19:00,61.3,60.1,30.09,WSW,248,0.0,2.0,96,0.00,,,0.00,WSDL version 420,2013-08-21 08:19:00,
2013-08-21 04:24:00,61.3,60.1,30.09,WSW,248,0.0,2.0,96,0.00,,,0.00,WSDL version 420,2013-08-21 08:24:00,
2013-08-21 04:29:00,61.3,60.1,30.09,WSW,248,0.7,1.6,96,0.00,,,0.00,WSDL version 420,2013-08-21 08:29:00,
2013-08-21 04:36:00,61.2,59.9,30.09,WSW,248,0.0,1.6,96,-99.99,,,-99.99,WSDL version 420,2013-08-21 08:36:00,
2013-08-21 04:41:00,61.3,60.1,30.09,WSW,248,0.0,1.3,96,0.00,,,0.00,WSDL version 420,2013-08-21 08:41:00,
2013-08-21 04:46:00,61.1,59.8,30.09,WSW,248,0.0,0.0,96,0.00,,,0.00,WSDL version 420,2013-08-21 08:46:00,
2013-08-21 04:51:00,61.0,59.9,30.09,SSW,203,0.4,1.6,97,0.00,,,0.00,WSDL version 420,2013-08-21 08:51:00,
2013-08-21 04:56:00,61.0,60.0,30.09,SSW,203,0.0,1.6,97,0.00,,,0.00,WSDL version 420,2013-08-21 08:56:00,
2013-08-21 05:01:00,61.0,60.0,30.09,SSW,203,0.4,2.0,97,0.00,,,0.00,WSDL version 420,2013-08-21 09:01:00,
2013-08-21 05:06:00,61.0,60.0,30.09,SSW,203,0.9,2.0,97,0.00,,,0.00,WSDL version 420,2013-08-21 09:06:00,
2013-08-21 05:11:00,61.1,60.1,30.09,SSW,203,0.0,1.3,97,0.00,,,0.00,WSDL version 420,2013-08-21 09:11:00,
2013-08-21 05:16:00,61.2,60.4,30.09,SSW,203,0.0,1.6,98,0.00,,,0.00,WSDL version 420,2013-08-21 09:16:00,
2013-08-21 05:21:00,61.2,60.5,30.09,SSW,203,0.7,1.6,98,-99.99,,,-99.99,WSDL version 420,2013-08-21 09:21:00,
2013-08-21 05:26:00,61.1,60.2,30.09,SSW,203,0.0,1.6,97,0.00,,,0.00,WSDL version 420,2013-08-21 09:26:00,
2013-08-21 05:31:00,61.0,60.0,30.09,SSW,203,0.0,1.3,97,0.00,,,0.00,WSDL version 420,2013-08-21 09:31:00,
2013-08-21 05:36:00,61.0,60.0,30.06,SSW,203,0.0,0.0,97,0.00,,,0.00,WSDL version 420,2013-08-21 09:36:00,
2013-08-21 05:41:00,61.0,60.2,30.06,SSW,203,0.9,1.3,98,-99.99,,,-99.99,WSDL version 420,2013-08-21 09:41:00,
2013-08-21 05:46:00,60.8,60.2,30.06,SSW,203,0.0,1.3,98,-99.99,,,-99.99,WSDL version 420,2013-08-21 09:46:00,
2013-08-21 05:51:00,60.8,60.2,30.09,SSW,203,0.0,0.0,98,0.00,,,0.00,WSDL version 420,2013-08-21 09:51:00,
2013-08-21 05:56:00,60.7,60.1,30.09,SSW,203,0.0,1.1,98,0.00,,,0.00,WSDL version 420,2013-08-21 09:56:00,
2013-08-21 06:01:00,60.6,60.0,30.09,SSW,203,0.0,1.1,98,0.00,,,0.00,WSDL version 420,2013-08-21 10:01:00,
2013-08-21 06:06:00,60.6,60.0,30.09,SSW,203,0.0,0.0,98,0.00,,,0.00,WSDL version 420,2013-08-21 10:06:00,
2013-08-21 06:11:00,60.5,59.8,30.09,SSW,203,0.0,0.0,98,0.00,,,0.00,WSDL version 420,2013-08-21 10:11:00,
2013-08-21 06:16:00,60.4,59.9,30.09,SSW,203,0.3,2.0,99,0.00,,,0.00,WSDL version 420,2013-08-21 10:16:00,
2013-08-21 06:21:00,60.4,60.1,30.09,SSW,203,0.0,2.0,99,0.00,,,0.00,WSDL version 420,2013-08-21 10:21:00,
2013-08-21 06:26:00,60.6,60.3,30.09,SSW,203,0.0,0.0,99,0.00,,,0.00,WSDL version 420,2013-08-21 10:26:00,
2013-08-21 06:31:00,60.6,60.3,30.09,SSW,203,0.0,0.0,99,0.00,,,0.00,WSDL version 420,2013-08-21 10:31:00,
2013-08-21 06:36:00,60.7,60.4,30.09,SSW,203,0.0,0.0,99,0.00,,,0.00,WSDL version 420,2013-08-21 10:36:00,
2013-08-21 06:52:00,61.2,60.8,30.12,SSW,203,0.0,0.0,99,0.00,,,0.00,WSDL version 420,2013-08-21 10:52:00,
2013-08-21 06:57:00,61.4,61.2,30.12,SSW,203,0.0,0.0,100,0.00,,,0.00,WSDL version 420,2013-08-21 10:57:00,
2013-08-21 07:02:00,61.7,61.7,30.09,SSW,203,0.0,0.0,100,0.00,,,0.00,WSDL version 420,2013-08-21 11:02:00,
2013-08-21 07:07:00,61.9,61.9,30.09,SSW,203,0.0,0.0,100,0.00,,,0.00,WSDL version 420,2013-08-21 11:07:00,
2013-08-21 07:12:00,62.2,62.2,30.09,SSW,203,0.0,0.0,100,0.00,,,0.00,WSDL version 420,2013-08-21 11:12:00,
2013-08-21 07:17:00,62.5,62.3,30.06,SSW,203,0.0,0.0,99,0.00,,,0.00,WSDL version 420,2013-08-21 11:17:00,
2013-08-21 07:22:00,62.7,62.4,30.06,SSW,203,0.0,0.0,99,0.00,,,0.00,WSDL version 420,2013-08-21 11:22:00,
2013-08-21 07:27:00,63.1,62.8,30.06,SSW,203,0.0,0.0,99,0.00,,,0.00,WSDL version 420,2013-08-21 11:27:00,
2013-08-21 07:32:00,63.5,63.4,30.06,SSW,203,0.0,0.0,99,0.00,,,0.00,WSDL version 420,2013-08-21 11:32:00,
2013-08-21 07:37:00,63.9,63.6,30.06,North,-999,-999.0,-999.0,99,0.00,,,0.00,WSDL version 420,2013-08-21 11:37:00,
2013-08-21 07:42:00,64.2,63.9,30.06,North,-999,-999.0,-999.0,99,0.00,,,0.00,WSDL version 420,2013-08-21 11:42:00,
2013-08-21 07:47:00,64.5,63.9,30.06,North,-999,-999.0,-999.0,98,0.00,,,0.00,WSDL version 420,2013-08-21 11:47:00,
2013-08-21 07:52:00,65.1,64.1,30.06,North,-999,-999.0,-999.0,97,0.00,,,0.00,WSDL version 420,2013-08-21 11:52:00,
2013-08-21 07:57:00,65.4,64.1,30.06,North,-999,-999.0,-999.0,96,0.00,,,0.00,WSDL version 420,2013-08-21 11:57:00,
2013-08-21 08:02:00,65.6,64.2,30.09,East,98,2.8,4.9,94,0.00,,,0.00,WSDL version 420,2013-08-21 12:02:00,
2013-08-21 08:07:00,66.0,64.0,30.09,NE,45,3.6,4.9,93,0.00,,,0.00,WSDL version 420,2013-08-21 12:07:00,
2013-08-21 08:12:00,66.3,64.3,30.09,NE,45,2.7,3.4,93,0.00,,,0.00,WSDL version 420,2013-08-21 12:12:00,
2013-08-21 08:17:00,66.7,64.4,30.09,NE,45,2.7,2.7,92,0.00,,,0.00,WSDL version 420,2013-08-21 12:17:00,
2013-08-21 08:22:00,67.0,64.4,30.09,NE,45,2.7,2.7,90,0.00,,,0.00,WSDL version 420,2013-08-21 12:22:00,
2013-08-21 08:27:00,67.2,64.2,30.09,North,-999,-999.0,-999.0,90,0.00,,,0.00,WSDL version 420,2013-08-21 12:27:00,
2013-08-21 08:32:00,67.2,64.4,30.09,North,-999,-999.0,-999.0,91,0.00,,,0.00,WSDL version 420,2013-08-21 12:32:00,
2013-08-21 08:37:00,67.6,65.0,30.09,North,-999,-999.0,-999.0,91,0.00,,,0.00,WSDL version 420,2013-08-21 12:37:00,
2013-08-21 08:42:00,68.0,65.1,30.09,North,-999,-999.0,-999.0,90,0.00,,,0.00,WSDL version 420,2013-08-21 12:42:00,
2013-08-21 08:47:00,68.3,64.8,30.09,WNW,293,1.1,2.5,88,0.00,,,0.00,WSDL version 420,2013-08-21 12:47:00,
2013-08-21 08:52:00,68.8,64.4,30.09,NW,315,1.6,2.5,86,0.00,,,0.00,WSDL version 420,2013-08-21 12:52:00,
2013-08-21 08:57:00,68.9,64.1,30.09,West,275,3.9,5.6,83,-99.99,,,-99.99,WSDL version 420,2013-08-21 12:57:00,
2013-08-21 09:02:00,69.2,63.5,30.09,NW,304,2.8,5.6,81,0.00,,,0.00,WSDL version 420,2013-08-21 13:02:00,
2013-08-21 09:07:00,69.3,63.3,30.09,NE,45,2.0,4.0,82,0.00,,,0.00,WSDL version 420,2013-08-21 13:07:00,
2013-08-21 09:12:00,69.9,63.9,30.09,NE,45,1.0,2.9,81,0.00,,,0.00,WSDL version 420,2013-08-21 13:12:00,
2013-08-21 09:17:00,70.5,64.3,30.09,NE,45,0.9,2.7,80,0.00,,,0.00,WSDL version 420,2013-08-21 13:17:00,
2013-08-21 09:22:00,70.8,64.0,30.09,NE,45,0.9,0.9,79,0.00,,,0.00,WSDL version 420,2013-08-21 13:22:00,
2013-08-21 09:27:00,71.0,63.6,30.09,NE,45,0.9,0.9,77,0.00,,,0.00,WSDL version 420,2013-08-21 13:27:00,
2013-08-21 09:34:00,71.2,63.4,30.06,North,-999,-999.0,-999.0,76,0.00,,,0.00,WSDL version 420,2013-08-21 13:34:00,
2013-08-21 09:39:00,71.2,62.7,30.06,North,-999,-999.0,-999.0,72,0.00,,,0.00,WSDL version 420,2013-08-21 13:39:00,
2013-08-21 09:44:00,71.1,62.1,30.06,North,-999,-999.0,-999.0,75,0.00,,,0.00,WSDL version 420,2013-08-21 13:44:00,
2013-08-21 09:49:00,71.3,62.5,30.09,ESE,113,3.8,6.3,73,0.00,,,0.00,WSDL version 420,2013-08-21 13:49:00,
2013-08-21 09:54:00,71.2,61.5,30.09,ESE,113,3.8,6.3,71,0.00,,,0.00,WSDL version 420,2013-08-21 13:54:00,
2013-08-21 09:59:00,71.5,62.2,30.09,ESE,113,3.8,6.3,73,0.00,,,0.00,WSDL version 420,2013-08-21 13:59:00,
2013-08-21 10:06:00,71.9,62.5,30.09,North,-999,-999.0,-999.0,73,0.00,,,0.00,WSDL version 420,2013-08-21 14:06:00,
2013-08-21 10:11:00,72.0,61.7,30.09,North,-999,-999.0,-999.0,69,0.00,,,0.00,WSDL version 420,2013-08-21 14:11:00,
2013-08-21 10:16:00,72.0,61.5,30.09,North,-999,-999.0,-999.0,69,0.00,,,0.00,WSDL version 420,2013-08-21 14:16:00,
2013-08-21 10:21:00,72.2,61.6,30.09,North,-999,-999.0,-999.0,69,0.00,,,0.00,WSDL version 420,2013-08-21 14:21:00,
2013-08-21 10:31:00,72.9,62.4,30.09,North,-999,-999.0,-999.0,69,0.00,,,0.00,WSDL version 420,2013-08-21 14:31:00,
2013-08-21 10:36:00,73.0,61.6,30.06,North,-999,-999.0,-999.0,68,0.00,,,0.00,WSDL version 420,2013-08-21 14:36:00,
2013-08-21 10:41:00,73.2,61.1,30.06,North,-999,-999.0,-999.0,66,0.00,,,0.00,WSDL version 420,2013-08-21 14:41:00,
2013-08-21 10:46:00,73.4,61.9,30.06,ESE,113,4.0,5.8,68,0.00,,,0.00,WSDL version 420,2013-08-21 14:46:00,
2013-08-21 10:51:00,73.8,62.0,30.06,ESE,113,4.0,5.8,66,0.00,,,0.00,WSDL version 420,2013-08-21 14:51:00,
2013-08-21 10:56:00,74.0,61.7,30.06,East,79,5.3,5.8,66,0.00,,,0.00,WSDL version 420,2013-08-21 14:56:00,
2013-08-21 11:01:00,74.2,61.9,30.06,ENE,68,3.8,5.8,65,0.00,,,0.00,WSDL version 420,2013-08-21 15:01:00,
2013-08-21 11:06:00,74.4,62.3,30.06,ENE,68,3.8,5.8,66,0.00,,,0.00,WSDL version 420,2013-08-21 15:06:00,
2013-08-21 11:11:00,74.5,62.1,-100.00,SSW,203,4.9,4.9,66,0.00,,,0.00,WSDL version 420,2013-08-21 15:11:00,
2013-08-21 11:16:00,74.5,62.0,30.06,SSW,203,4.9,4.9,65,-99.99,,,-99.99,WSDL version 420,2013-08-21 15:16:00,
2013-08-21 11:21:00,74.7,62.7,30.03,SSW,203,4.9,4.9,67,0.00,,,0.00,WSDL version 420,2013-08-21 15:21:00,
2013-08-21 11:26:00,75.2,63.4,30.03,SSE,158,0.9,4.9,67,0.00,,,0.00,WSDL version 420,2013-08-21 15:26:00,
2013-08-21 11:31:00,75.3,62.2,30.03,SSE,158,0.9,3.4,64,0.00,,,0.00,WSDL version 420,2013-08-21 15:31:00,
2013-08-21 11:36:00,75.6,62.7,30.03,SSE,158,0.9,3.4,64,0.00,,,0.00,WSDL version 420,2013-08-21 15:36:00,
2013-08-21 11:41:00,75.9,62.5,30.03,North,-999,-999.0,-999.0,63,0.00,,,0.00,WSDL version 420,2013-08-21 15:41:00,
2013-08-21 11:46:00,76.0,62.2,30.03,North,-999,-999.0,-999.0,63,0.00,,,0.00,WSDL version 420,2013-08-21 15:46:00,
2013-08-21 11:52:00,76.4,62.9,30.03,North,-999,-999.0,-999.0,63,0.00,,,0.00,WSDL version 420,2013-08-21 15:52:00,
2013-08-21 11:57:00,76.5,61.6,-100.00,North,-999,-999.0,-999.0,62,0.00,,,0.00,WSDL version 420,2013-08-21 15:57:00,
2013-08-21 12:02:00,76.6,62.8,30.03,North,-999,-999.0,-999.0,62,0.00,,,0.00,WSDL version 420,2013-08-21 16:02:00,
2013-08-21 12:07:00,76.9,62.6,30.03,East,90,0.0,3.6,61,0.00,,,0.00,WSDL version 420,2013-08-21 16:07:00,
2013-08-21 12:12:00,77.1,62.0,30.03,East,90,0.0,3.6,60,0.00,,,0.00,WSDL version 420,2013-08-21 16:12:00,
2013-08-21 12:17:00,77.0,61.7,30.03,East,90,0.0,3.6,61,0.00,,,0.00,WSDL version 420,2013-08-21 16:17:00,
2013-08-21 12:58:00,77.6,60.7,30.03,North,-999,-999.0,-999.0,56,0.00,,,0.00,WSDL version 420,2013-08-21 16:58:00,
2013-08-21 15:49:00,81.9,55.7,29.97,SW,225,2.2,2.9,41,0.00,,,0.00,WSDL version 420,2013-08-21 19:49:00,
2013-08-21 15:59:00,82.0,56.2,29.97,SW,225,2.2,2.2,40,0.00,,,0.00,WSDL version 420,2013-08-21 19:59:00,
2013-08-21 16:04:00,81.8,54.7,29.97,North,-999,-999.0,-999.0,40,0.00,,,0.00,WSDL version 420,2013-08-21 20:04:00,
2013-08-21 16:09:00,82.0,56.0,29.97,North,-999,-999.0,-999.0,41,0.00,,,0.00,WSDL version 420,2013-08-21 20:09:00,
2013-08-21 16:14:00,82.1,55.6,29.97,North,-999,-999.0,-999.0,40,0.00,,,0.00,WSDL version 420,2013-08-21 20:14:00,
2013-08-21 16:19:00,81.8,54.7,30.00,North,-999,-999.0,-999.0,39,0.00,,,0.00,WSDL version 420,2013-08-21 20:19:00,
2013-08-21 16:24:00,81.1,54.5,30.00,North,-999,-999.0,-999.0,41,0.00,,,0.00,WSDL version 420,2013-08-21 20:24:00,
2013-08-21 16:29:00,80.1,54.6,30.00,North,-999,-999.0,-999.0,42,0.00,,,0.00,WSDL version 420,2013-08-21 20:29:00,
2013-08-21 16:34:00,80.2,55.2,29.97,North,-999,-999.0,-999.0,42,0.00,,,0.00,WSDL version 420,2013-08-21 20:34:00,
2013-08-21 16:39:00,80.8,55.0,29.97,North,-999,-999.0,-999.0,41,0.00,,,0.00,WSDL version 420,2013-08-21 20:39:00,
2013-08-21 16:44:00,80.7,55.0,29.97,North,-999,-999.0,-999.0,42,0.00,,,0.00,WSDL version 420,2013-08-21 20:44:00,
2013-08-21 16:49:00,79.8,55.2,29.97,North,-999,-999.0,-999.0,44,0.00,,,0.00,WSDL version 420,2013-08-21 20:49:00,
2013-08-21 16:54:00,78.9,55.4,29.97,NNE,23,0.9,0.0,47,0.00,,,0.00,WSDL version 420,2013-08-21 20:54:00,
2013-08-21 16:59:00,78.5,55.6,29.97,NNE,23,0.9,0.0,46,0.00,,,0.00,WSDL version 420,2013-08-21 20:59:00,
2013-08-21 17:04:00,78.5,56.5,29.97,NNE,23,0.9,0.0,47,0.00,,,0.00,WSDL version 420,2013-08-21 21:04:00,
2013-08-21 17:09:00,78.7,56.8,29.97,NNE,23,0.9,0.0,47,0.00,,,0.00,WSDL version 420,2013-08-21 21:09:00,
2013-08-21 17:14:00,78.4,58.8,29.97,North,-999,-999.0,-999.0,52,0.00,,,0.00,WSDL version 420,2013-08-21 21:14:00,
2013-08-21 17:19:00,77.7,59.5,29.97,North,-999,-999.0,-999.0,53,0.00,,,0.00,WSDL version 420,2013-08-21 21:19:00,
2013-08-21 17:24:00,77.9,59.0,29.97,North,-999,-999.0,-999.0,53,0.00,,,0.00,WSDL version 420,2013-08-21 21:24:00,
2013-08-21 17:29:00,77.8,59.0,29.97,North,-999,-999.0,-999.0,53,0.00,,,0.00,WSDL version 420,2013-08-21 21:29:00,
2013-08-21 17:34:00,77.4,59.0,29.97,North,-999,-999.0,-999.0,52,0.00,,,0.00,WSDL version 420,2013-08-21 21:34:00,
2013-08-21 17:39:00,77.2,57.7,29.97,North,-999,-999.0,-999.0,51,0.00,,,0.00,WSDL version 420,2013-08-21 21:39:00,
2013-08-21 17:44:00,76.5,58.9,29.97,North,-999,-999.0,-999.0,54,0.00,,,0.00,WSDL version 420,2013-08-21 21:44:00,
2013-08-21 17:49:00,75.9,59.5,29.97,North,-999,-999.0,-999.0,58,0.00,,,0.00,WSDL version 420,2013-08-21 21:49:00,
2013-08-21 17:54:00,75.1,59.7,29.97,North,-999,-999.0,-999.0,59,0.00,,,0.00,WSDL version 420,2013-08-21 21:54:00,
2013-08-21 17:59:00,74.6,59.9,29.97,North,-999,-999.0,-999.0,61,0.00,,,0.00,WSDL version 420,2013-08-21 21:59:00,
2013-08-21 18:04:00,74.3,59.8,29.94,North,-999,-999.0,-999.0,61,0.00,,,0.00,WSDL version 420,2013-08-21 22:04:00,
2013-08-21 18:09:00,73.6,59.8,29.94,North,-999,-999.0,-999.0,62,0.00,,,0.00,WSDL version 420,2013-08-21 22:09:00,
2013-08-21 18:14:00,73.1,59.7,29.94,North,-999,-999.0,-999.0,63,0.00,,,0.00,WSDL version 420,2013-08-21 22:14:00,
2013-08-21 18:19:00,72.7,59.6,29.97,North,-999,-999.0,-999.0,63,0.00,,,0.00,WSDL version 420,2013-08-21 22:19:00,
2013-08-21 18:24:00,72.3,59.5,29.97,North,-999,-999.0,-999.0,64,0.00,,,0.00,WSDL version 420,2013-08-21 22:24:00,
2013-08-21 18:29:00,71.9,59.2,29.97,North,-999,-999.0,-999.0,64,0.00,,,0.00,WSDL version 420,2013-08-21 22:29:00,
2013-08-21 18:34:00,71.6,59.4,29.94,North,-999,-999.0,-999.0,66,0.00,,,0.00,WSDL version 420,2013-08-21 22:34:00,
2013-08-21 18:39:00,71.2,59.2,29.94,North,-999,-999.0,-999.0,66,0.00,,,0.00,WSDL version 420,2013-08-21 22:39:00,
2013-08-21 18:44:00,71.0,59.1,29.94,North,-999,-999.0,-999.0,66,0.00,,,0.00,WSDL version 420,2013-08-21 22:44:00,
2013-08-21 18:49:00,70.7,58.9,29.94,North,-999,-999.0,-999.0,67,0.00,,,0.00,WSDL version 420,2013-08-21 22:49:00,
2013-08-21 18:54:00,70.5,58.9,29.94,North,-999,-999.0,-999.0,67,0.00,,,0.00,WSDL version 420,2013-08-21 22:54:00,
2013-08-21 18:59:00,70.4,58.8,29.94,North,-999,-999.0,-999.0,67,0.00,,,0.00,WSDL version 420,2013-08-21 22:59:00,
2013-08-21 19:04:00,70.2,58.7,29.91,North,-999,-999.0,-999.0,67,0.00,,,0.00,WSDL version 420,2013-08-21 23:04:00,
2013-08-21 19:09:00,70.0,58.7,29.91,North,-999,-999.0,-999.0,68,0.00,,,0.00,WSDL version 420,2013-08-21 23:09:00,
2013-08-21 19:14:00,69.8,58.6,29.91,North,-999,-999.0,-999.0,68,0.00,,,0.00,WSDL version 420,2013-08-21 23:14:00,
2013-08-21 19:19:00,69.7,58.7,29.94,North,-999,-999.0,-999.0,68,0.00,,,0.00,WSDL version 420,2013-08-21 23:19:00,
2013-08-21 19:24:00,69.4,58.5,29.94,North,-999,-999.0,-999.0,69,0.00,,,0.00,WSDL version 420,2013-08-21 23:24:00,
2013-08-21 19:29:00,69.3,58.7,29.94,North,-999,-999.0,-999.0,69,0.00,,,0.00,WSDL version 420,2013-08-21 23:29:00,
2013-08-21 19:34:00,69.2,58.6,29.91,North,-999,-999.0,-999.0,69,0.00,,,0.00,WSDL version 420,2013-08-21 23:34:00,
2013-08-21 19:39:00,69.0,58.5,29.91,North,-999,-999.0,-999.0,70,0.00,,,0.00,WSDL version 420,2013-08-21 23:39:00,
2013-08-21 19:44:00,68.7,58.6,29.91,North,-999,-999.0,-999.0,70,0.00,,,0.00,WSDL version 420,2013-08-21 23:44:00,
2013-08-21 19:49:00,68.6,58.4,29.94,North,-999,-999.0,-999.0,70,0.00,,,0.00,WSDL version 420,2013-08-21 23:49:00,
2013-08-21 19:54:00,68.5,58.3,29.94,North,-999,-999.0,-999.0,70,0.00,,,0.00,WSDL version 420,2013-08-21 23:54:00,
2013-08-21 19:59:00,68.5,58.4,29.94,North,-999,-999.0,-999.0,70,0.00,,,0.00,WSDL version 420,2013-08-21 23:59:00,
2013-08-21 20:04:00,68.7,58.6,29.91,North,-999,-999.0,-999.0,70,0.00,,,0.00,WSDL version 420,2013-08-22 00:04:00,
2013-08-21 20:09:00,69.1,58.7,29.91,North,-999,-999.0,-999.0,70,0.00,,,0.00,WSDL version 420,2013-08-22 00:09:00,
2013-08-21 20:14:00,69.1,58.8,29.91,North,-999,-999.0,-999.0,70,0.00,,,0.00,WSDL version 420,2013-08-22 00:14:00,
2013-08-21 20:19:00,69.2,58.6,29.91,North,-999,-999.0,-999.0,69,0.00,,,0.00,WSDL version 420,2013-08-22 00:19:00,
2013-08-21 20:24:00,69.3,58.7,29.91,North,-999,-999.0,-999.0,69,0.00,,,0.00,WSDL version 420,2013-08-22 00:24:00,
2013-08-21 20:29:00,69.3,58.7,29.91,North,-999,-999.0,-999.0,69,0.00,,,0.00,WSDL version 420,2013-08-22 00:29:00,
2013-08-21 20:34:00,68.8,58.3,-100.00,North,-999,-999.0,-999.0,69,0.00,,,0.00,WSDL version 420,2013-08-22 00:34:00,
2013-08-21 20:39:00,68.7,58.1,29.94,North,-999,-999.0,-999.0,69,0.00,,,0.00,WSDL version 420,2013-08-22 00:39:00,
2013-08-21 20:44:00,68.7,58.2,29.94,North,-999,-999.0,-999.0,69,0.00,,,0.00,WSDL version 420,2013-08-22 00:44:00,
2013-08-21 20:49:00,68.5,58.1,29.94,North,-999,-999.0,-999.0,70,0.00,,,0.00,WSDL version 420,2013-08-22 00:49:00,
2013-08-21 20:54:00,68.4,58.2,29.94,North,-999,-999.0,-999.0,70,0.00,,,0.00,WSDL version 420,2013-08-22 00:54:00,
2013-08-21 20:59:00,68.4,58.2,29.94,North,-999,-999.0,-999.0,70,0.00,,,0.00,WSDL version 420,2013-08-22 00:59:00,
2013-08-21 21:04:00,68.4,58.3,29.91,North,-999,-999.0,-999.0,71,-99.99,,,-99.99,WSDL version 420,2013-08-22 01:04:00,
2013-08-21 21:09:00,68.4,58.3,29.91,North,-999,-999.0,-999.0,70,0.00,,,0.00,WSDL version 420,2013-08-22 01:09:00,
2013-08-21 21:14:00,68.5,58.4,29.91,North,-999,-999.0,-999.0,71,0.00,,,0.00,WSDL version 420,2013-08-22 01:14:00,
2013-08-21 21:19:00,68.6,58.7,29.91,North,-999,-999.0,-999.0,71,0.00,,,0.00,WSDL version 420,2013-08-22 01:19:00,
2013-08-21 21:24:00,68.7,58.9,29.91,North,-999,-999.0,-999.0,71,0.00,,,0.00,WSDL version 420,2013-08-22 01:24:00,
2013-08-21 21:29:00,68.6,58.8,29.91,North,-999,-999.0,-999.0,71,0.00,,,0.00,WSDL version 420,2013-08-22 01:29:00,
2013-08-21 21:34:00,69.0,59.3,29.91,North,-999,-999.0,-999.0,71,0.00,,,0.00,WSDL version 420,2013-08-22 01:34:00,
2013-08-21 21:39:00,69.3,59.9,29.91,North,-999,-999.0,-999.0,72,0.00,,,0.00,WSDL version 420,2013-08-22 01:39:00,
2013-08-21 21:44:00,69.4,60.0,29.91,North,-999,-999.0,-999.0,72,0.00,,,0.00,WSDL version 420,2013-08-22 01:44:00,
2013-08-21 21:49:00,69.4,60.0,29.94,North,-999,-999.0,-999.0,72,0.00,,,0.00,WSDL version 420,2013-08-22 01:49:00,
2013-08-21 21:54:00,69.4,60.0,29.94,North,-999,-999.0,-999.0,72,0.00,,,0.00,WSDL version 420,2013-08-22 01:54:00,
2013-08-21 21:59:00,69.4,60.1,29.94,North,-999,-999.0,-999.0,73,0.00,,,0.00,WSDL version 420,2013-08-22 01:59:00,
2013-08-21 22:04:00,69.7,60.7,29.91,North,-999,-999.0,-999.0,73,0.00,,,0.00,WSDL version 420,2013-08-22 02:04:00,
2013-08-21 22:09:00,69.9,60.7,29.91,North,-999,-999.0,-999.0,72,0.00,,,0.00,WSDL version 420,2013-08-22 02:09:00,
2013-08-21 22:14:00,70.1,60.7,29.91,North,-999,-999.0,-999.0,72,0.00,,,0.00,WSDL version 420,2013-08-22 02:14:00,
2013-08-21 22:19:00,70.2,60.3,29.94,North,-999,-999.0,-999.0,71,0.00,,,0.00,WSDL version 420,2013-08-22 02:19:00,
2013-08-21 22:24:00,70.2,60.4,29.94,North,-999,-999.0,-999.0,71,0.00,,,0.00,WSDL version 420,2013-08-22 02:24:00,
2013-08-21 22:29:00,70.3,60.4,29.94,North,-999,-999.0,-999.0,71,0.00,,,0.00,WSDL version 420,2013-08-22 02:29:00,
2013-08-21 22:34:00,70.3,60.5,29.91,North,-999,-999.0,-999.0,71,0.00,,,0.00,WSDL version 420,2013-08-22 02:34:00,
2013-08-21 22:39:00,70.3,60.4,29.91,North,-999,-999.0,-999.0,71,0.00,,,0.00,WSDL version 420,2013-08-22 02:39:00,
2013-08-21 22:44:00,70.1,60.3,29.91,North,-999,-999.0,-999.0,71,0.00,,,0.00,WSDL version 420,2013-08-22 02:44:00,
2013-08-21 22:49:00,70.0,60.5,29.94,North,-999,-999.0,-999.0,72,0.00,,,0.00,WSDL version 420,2013-08-22 02:49:00,
2013-08-21 22:54:00,70.0,60.5,29.94,North,-999,-999.0,-999.0,72,0.00,,,0.00,WSDL version 420,2013-08-22 02:54:00,
2013-08-21 22:59:00,69.9,60.7,29.94,North,-999,-999.0,-999.0,73,0.00,,,0.00,WSDL version 420,2013-08-22 02:59:00,
2013-08-21 23:04:00,69.6,60.6,29.94,North,-999,-999.0,-999.0,73,0.00,,,0.00,WSDL version 420,2013-08-22 03:04:00,
2013-08-21 23:09:00,69.1,60.2,29.94,North,-999,-999.0,-999.0,74,0.00,,,0.00,WSDL version 420,2013-08-22 03:09:00,
2013-08-21 23:14:00,68.9,60.5,29.94,East,90,2.0,2.7,75,-99.99,,,-99.99,WSDL version 420,2013-08-22 03:14:00,
2013-08-21 23:19:00,68.8,60.6,29.94,East,100,1.5,4.0,75,0.00,,,0.00,WSDL version 420,2013-08-22 03:19:00,
2013-08-21 23:24:00,68.7,60.7,29.94,SSW,203,0.7,4.0,76,0.00,,,0.00,WSDL version 420,2013-08-22 03:24:00,
2013-08-21 23:29:00,68.0,60.2,29.94,South,183,1.2,2.9,76,0.00,,,0.00,WSDL version 420,2013-08-22 03:29:00,
2013-08-21 23:34:00,67.7,60.4,29.94,South,188,1.3,2.9,78,0.00,,,0.00,WSDL version 420,2013-08-22 03:34:00,
2013-08-21 23:39:00,67.4,60.3,29.94,WSW,244,1.7,2.9,78,0.00,,,0.00,WSDL version 420,2013-08-22 03:39:00,
2013-08-21 23:44:00,67.2,60.5,29.94,WSW,242,0.2,2.9,79,0.00,,,0.00,WSDL version 420,2013-08-22 03:44:00,
2013-08-21 23:49:00,67.0,60.5,29.94,SW,215,0.0,2.0,80,0.00,,,0.00,WSDL version 420,2013-08-22 03:49:00,
2013-08-21 23:55:00,66.7,60.4,29.94,SW,225,0.7,2.0,80,0.00,,,0.00,WSDL version 420,2013-08-22 03:55:00,